Back to catalog

COSMOS 1275 DEB

AlivePO
NORAD 13800·DEBRIS·🇷🇺 Russia

Launched Jun 4, 1981 from Plesetsk Cosmodrome

Loading…

Next Passes (next 24 hours)

TLE

FreshSource: Space-Track

Epoch: Sep 14, 2026, 20:39 UTC

1 13800U 81053GU  26257.86060906  .00000608  00000-0  64759-3 0  9994
2 13800  83.2190 101.4143 0156136 112.0691 266.2518 13.67302738166321

Track COSMOS 1275 DEB in real time with AllMySat

Download on the App Store